Tracking 19489 objects as of 22-Jan-2019
HD Live streaming from Space Station
objects crossing your sky now

SKCUBE

Track SKCUBE now!
10-day predictions
SKCUBE is classified as:


NORAD ID: 42789
Int'l Code: 2017-036AA
Perigee: 497.1 km
Apogee: 514.3 km
Inclination: 97.4 °
Period: 94.6 minutes
Semi major axis: 6876 km
RCS: Unknown
Launch date: June 23, 2017
Source: Slovakia (SK)
Launch site: SRIHARIKOTA (SRI)

Uplink (MHz): 437.100
Downlink (MHz): 437.100/2401.000
Beacon (MHz): 437.100
Mode: 9k6GMSK Digipeater CW
Call sign: OM9SAT
Status: Active

aabbcc
Your satellite tracking list
Your tracking list is empty




NASA's NSSDC Master Catalog

Two Line Element Set (TLE):
1 42789U 17036AA  19021.58536906 +.00000830 +00000-0 +38867-4 0  9999
2 42789 097.3735 082.6618 0012484 037.2748 322.9352 15.22423268087733
Source of the keplerian elements: AMSAT